Location: Karlsruhe
(49.0131°N, 8.3874°E)
Time: 14:55:19
(UTC+02:00)

ISS - Pass Details

Date: 19 May 2021
Orbit: 419 x 422 km, 51.6° (Epoch: 25 June)

Event Time Altitude Azimuth Distance (km) Brightness Sun altitude
Rises 21:56:37 0° 247° (WSW) 2,364 0.4 -7.2°
Reaches altitude 10° 21:58:42 10° 247° (WSW) 1,502 -0.6 -7.5°
Maximum altitude 22:02:05 86° 160° (SSE) 428 -3.8 -7.9°
Drops below altitude 10° 22:05:28 10° 71° (ENE) 1,509 -1.2 -8.3°
Enters shadow 22:09:46 -7° 71° (ENE) 3,280 0.5 -8.8°
